Home   Weather   Luanda   Past weeks
Flag for Angola

Past Weather in Luanda, Angola — Yesterday and Last 2 Weeks

Now
70 °F

Passing clouds.


Feels Like: 70 °F
Forecast: 76 / 69 °F
Wind: 5 mph from Southeast

Location: Luanda Airport

Current Time: Jul 21, 2019 at 1:17:37 am

Latest Report: Jul 21, 2019 at 1:00 am


Visibility: 4 mi

Pressure: 30.01 "Hg

Humidity: 94%

Dew Point: 68 °F

Location of LuandaLocation

Past Weather in Luanda — Graph

°F

Luanda Temperature Yesterday

Maximum temperature yesterday: 81 °F (at 12:00 pm)
Minimum temperature yesterday: 66 °F (at 2:00 am)
Average temperature yesterday: 72 °F

High & Low Weather Summary for the Past Weeks

 TemperatureHumidityPressure
High84 °F (Jul 18, 7:00 am)100% (Jul 7, 4:00 am)30.04 "Hg (Jul 7, 4:00 am)
Low66 °F (Jul 11, 6:00 am)47% (Jul 19, 3:00 pm)29.83 "Hg (Jul 8, 4:00 pm)
Average73 °F86%29.95 "Hg
* Reported Jul 6 12:00 am — Jul 21 12:00 am, Luanda. Weather by CustomWeather, © 2019

Note: Actual official high and low records may vary slightly from our data, if they occured in-between our weather recording intervals... More about our weather records

Advertising

Luanda Weather History for the Previous 24 Hours

Scroll right to see more
 ConditionsComfort  
Time TempWeatherWind HumidityBarometerVisibility
12:00 am
Sun, Jul 21
68 °FClear.3 mph94%30.01 "Hg4 mi
11:00 pm
Sat, Jul 20
70 °FClear.5 mph88%N/A4 mi
10:00 pm70 °FClear.5 mph88%30.01 "Hg4 mi
9:00 pm72 °FClear.6 mph83%29.98 "Hg4 mi
8:00 pm72 °FClear.6 mph88%29.95 "Hg4 mi
7:00 pm72 °FPassing clouds.6 mph88%29.92 "Hg4 mi
6:00 pm73 °FPassing clouds.7 mph83%29.92 "Hg5 mi
5:00 pm75 °FClear.9 mph83%29.92 "Hg5 mi
4:00 pm77 °FSunny.9 mph74%29.92 "Hg10 mi
3:00 pm79 °FPassing clouds.7 mph70%29.92 "Hg6 mi
2:00 pm81 °FPassing clouds.8 mph66%29.95 "Hg6 mi
1:00 pm81 °FScattered clouds.7 mph66%29.98 "Hg6 mi
12:00 pm81 °FPartly sunny.3 mph70%30.01 "Hg6 mi
11:00 am77 °FPartly sunny.2 mph74%30.01 "Hg6 mi
10:00 am75 °FPartly sunny.3 mph78%30.04 "Hg4 mi
9:00 am73 °FPartly sunny.6 mph83%30.01 "Hg4 mi
7:00 am66 °FLight fog.3 mph100%29.98 "Hg1 mi
6:00 am66 °FPassing clouds.2 mph100%29.95 "Hg1 mi
5:00 am68 °FFog.No wind94%29.95 "Hg2 mi
4:00 am68 °FFog.3 mph94%29.98 "Hg2 mi
3:00 am68 °FFog.2 mph94%29.98 "Hg2 mi
2:00 am66 °FFog.3 mph100%29.98 "Hg2 mi
1:00 am68 °FFog.3 mph94%29.98 "Hg2 mi
Weather by CustomWeather, © 2019

See weather overview